[[{"header":{"parameterUnit":"m.s-1","parameterCategory":1,"la1":30.2991,"la2":30.254,"lo1":-89.0895,"lo2":-89.0444,"dy":0.0017,"dx":0.0017,"nx":28,"ny":28,"refTime":"2025-08-23T21:00:00:Z","depth":0,"parameterNumber":2,"parameterNumberName":"U-component_of_WINDS"},"data":[0,0,0,0,0,0,0,0,0,0,0,0,0,0,0,0,0,0,0,0,0,0,0,0,0,0,0,0,0,0,0,0,0,0,0,0,0,0,0,0,0,0,0,0,0,0,0,0,0,0,0,0,0,0,0,0,0,0,-0.3075,-0.3075,0,-0.3071,-0.3071,-0.3071,-0.3068,-0.3068,-0.3068,-0.3068,-0.3065,-0.3065,-0.3065,0,0,0,0,0,0,0,0,0,0,0,0,0,-0.3081,-0.308,-0.3075,-0.3075,-0.3075,-0.3071,-0.3071,-0.3071,-0.3068,-0.3068,-0.3068,-0.3068,-0.3065,-0.3065,-0.3065,0,0,0,0,0,0,0,0,0,0,0,0,0,-0.3077,-0.308,-0.3075,-0.3073,-0.3073,-0.3071,-0.3071,-0.3071,-0.3068,-0.3068,-0.3068,-0.3068,-0.3065,-0.3065,-0.3065,-0.3064,0,0,-0.3064,-0.3064,0,0,0,0,0,0,0,0,-0.3078,-0.3077,-0.3073,-0.3073,-0.3073,-0.307,-0.3071,-0.3068,-0.3068,-0.307,-0.3068,-0.3068,-0.3067,-0.3066,-0.3066,-0.3064,-0.3064,-0.3064,-0.3064,-0.3064,-0.3064,0,0,0,0,0,0,0,-0.3078,-0.3077,-0.3073,-0.3073,-0.3073,-0.3072,-0.3072,-0.3071,-0.3068,-0.307,-0.307,-0.3069,-0.3066,-0.3066,-0.3065,-0.3064,-0.3064,-0.3064,-0.3064,-0.3064,-0.3061,-0.3062,0,0,0,0,0,0,-0.3078,-0.3078,-0.3073,-0.3073,-0.3075,-0.3072,-0.3072,-0.3071,-0.3068,-0.3068,-0.3069,-0.3069,-0.3066,-0.3066,-0.3065,-0.3065,-0.3064,-0.3064,-0.3064,-0.3061,-0.3061,-0.3062,0,0,0,0,0,0,-0.3078,-0.3078,-0.3073,-0.3075,-0.3075,-0.3072,-0.3071,-0.3071,-0.307,-0.3068,-0.3068,-0.3069,-0.3066,-0.3066,-0.3064,-0.3064,-0.3064,-0.3064,-0.3061,-0.3061,-0.3062,-0.3063,0,0,0,0,0,0,-0.3079,-0.3078,-0.3078,-0.3075,-0.3075,-0.3072,-0.3071,-0.3071,-0.307,-0.307,-0.3068,-0.3067,-0.3066,-0.3065,-0.3064,-0.3064,-0.3064,-0.3061,-0.3061,-0.3061,-0.3063,-0.3063,-0.3063,0,0,0,0,0,-0.3079,-0.3078,-0.3078,-0.3077,-0.3074,-0.3072,-0.3072,-0.307,-0.307,-0.307,-0.3068,-0.3067,-0.3064,-0.3065,-0.3064,-0.3064,-0.3061,-0.3061,-0.3061,-0.3063,-0.3063,-0.3063,0,0,0,0,0,0,-0.3081,-0.3078,-0.3077,-0.3076,-0.3074,-0.3072,-0.3072,-0.3071,-0.3069,-0.3069,-0.3067,-0.3067,-0.3066,-0.3065,-0.3065,-0.3063,-0.3063,-0.3063,-0.3064,-0.3064,-0.3064,-0.3065,-0.3064,0,0,0,0,0,-0.3082,-0.308,-0.3078,-0.3077,-0.3076,-0.3074,-0.3073,-0.3072,-0.307,-0.307,-0.3068,-0.3067,-0.3066,-0.3065,-0.3064,-0.3063,-0.3062,-0.3063,-0.3063,-0.3063,-0.3063,-0.3062,-0.3062,-0.3062,-0.3062,-0.3062,0,0,-0.3082,-0.308,-0.308,-0.3077,-0.3076,-0.3075,-0.3073,-0.3072,-0.3071,-0.307,-0.3068,-0.3067,-0.3066,-0.3065,-0.3064,-0.3064,-0.3063,-0.3063,-0.3063,-0.3063,-0.3062,-0.3062,-0.3062,-0.3062,-0.3062,-0.3062,0,0,-0.3083,-0.3082,-0.3081,-0.3079,-0.3077,-0.3076,-0.3076,-0.3073,-0.3072,-0.3071,-0.307,-0.3069,-0.3067,-0.3065,-0.3064,-0.3065,-0.3064,-0.3064,-0.3065,-0.3064,-0.3064,-0.3064,-0.3064,-0.3064,-0.3064,-0.3064,-0.3064,0,-0.3084,-0.3082,-0.308,-0.3079,-0.3078,-0.3076,-0.3075,-0.3074,-0.3072,-0.3071,-0.3071,-0.3068,-0.3067,-0.3065,-0.3065,-0.3065,-0.3065,-0.3065,-0.3065,-0.3065,-0.3065,-0.3065,-0.3065,-0.3064,-0.3064,-0.3064,-0.3064,0,-0.3084,-0.3083,-0.3082,-0.308,-0.3079,-0.3078,-0.3076,-0.3075,-0.3074,-0.3072,-0.3071,-0.3069,-0.3068,-0.3067,-0.3066,-0.3066,-0.3066,-0.3065,-0.3064,-0.3065,-0.3065,-0.3065,-0.3064,-0.3064,-0.3064,-0.3064,0,0,-0.3086,-0.3082,-0.3082,-0.3081,-0.3079,-0.3078,-0.3076,-0.3075,-0.3074,-0.3072,-0.3071,-0.307,-0.3069,-0.3068,-0.3067,-0.3066,-0.3067,-0.3066,-0.3066,-0.3066,-0.3066,-0.3066,-0.3066,-0.3066,-0.3066,-0.3066,-0.3066,0,-0.3087,-0.3084,-0.3082,-0.3081,-0.308,-0.3078,-0.3077,-0.3075,-0.3074,-0.3073,-0.3071,-0.307,-0.3069,-0.3069,-0.3068,-0.3067,-0.3066,-0.3067,-0.3065,-0.3065,-0.3065,-0.3066,-0.3067,-0.3067,-0.3066,-0.3066,-0.3066,0,-0.3087,-0.3085,-0.3083,-0.3081,-0.308,-0.3079,-0.3077,-0.3076,-0.3074,-0.3073,-0.3072,-0.3071,-0.307,-0.3069,-0.3068,-0.3068,-0.3067,-0.3066,-0.3066,-0.3066,-0.3065,-0.3066,-0.3067,-0.3067,-0.3066,-0.3066,-0.3066,0,-0.3088,-0.3086,-0.3084,-0.3083,-0.308,-0.308,-0.3078,-0.3076,-0.3075,-0.3074,-0.3073,-0.3072,-0.3071,-0.307,-0.3068,-0.3068,-0.3067,-0.3066,-0.3066,-0.3066,-0.3066,-0.3066,-0.3066,-0.3065,-0.3065,-0.3065,-0.3065,0,-0.3089,-0.3088,-0.3085,-0.3084,-0.3083,-0.3081,-0.308,-0.3078,-0.3077,-0.3075,-0.3074,-0.3073,-0.3071,-0.307,-0.3068,-0.3067,-0.3067,-0.3066,-0.3066,-0.3066,-0.3066,-0.3066,-0.3066,-0.3065,-0.3065,-0.3065,-0.3065,0,-0.3091,-0.3088,-0.3087,-0.3084,-0.3083,-0.3082,-0.308,-0.3079,-0.3078,-0.3076,-0.3076,-0.3074,-0.3072,-0.3071,-0.3069,-0.3068,-0.3067,-0.3066,-0.3067,-0.3067,-0.3067,-0.3067,-0.3067,-0.3067,-0.3066,-0.3066,-0.3066,0,-0.3091,-0.309,-0.3087,-0.3086,-0.3085,-0.3083,-0.3082,-0.308,-0.3079,-0.3077,-0.3076,-0.3075,-0.3073,-0.3071,-0.3069,-0.3068,-0.3067,-0.3067,-0.3067,-0.3067,-0.3067,-0.3067,-0.3067,-0.3067,-0.3067,-0.3067,-0.3068,0,-0.3092,-0.3091,-0.3089,-0.3087,-0.3086,-0.3084,-0.3082,-0.3082,-0.3079,-0.3078,-0.3077,-0.3076,-0.3073,-0.3072,-0.307,-0.3069,-0.3068,-0.3068,-0.3068,-0.3068,-0.3068,-0.3068,-0.3067,-0.3068,-0.3068,-0.3068,-0.3068,-0.3068,-0.3093,-0.3092,-0.309,-0.3088,-0.3086,-0.3085,-0.3084,-0.3082,-0.3081,-0.3078,-0.3077,-0.3076,-0.3074,-0.3071,-0.307,-0.3069,-0.3069,-0.3069,-0.3069,-0.3069,-0.3069,-0.3069,-0.3069,-0.3069,-0.3069,-0.3069,-0.3069,0,-0.3094,-0.3092,-0.309,-0.3088,-0.3087,-0.3085,-0.3084,-0.3082,-0.3081,-0.3079,-0.3078,-0.3076,-0.3074,-0.3072,-0.3071,-0.307,-0.307,-0.307,-0.307,-0.3069,-0.3069,-0.3069,-0.307,-0.307,-0.307,-0.307,-0.307,-0.307,-0.3094,-0.3092,-0.3091,-0.3089,-0.3087,-0.3085,-0.3084,-0.3083,-0.3081,-0.3079,-0.3078,-0.3076,-0.3075,-0.3073,-0.3071,-0.3071,-0.307,-0.3071,-0.307,-0.307,-0.3069,-0.3069,-0.307,-0.307,-0.307,-0.307,-0.307,-0.307]},{"header":{"parameterUnit":"m.s-1","parameterCategory":1,"la1":30.2991,"la2":30.254,"lo1":-89.0895,"lo2":-89.0444,"dy":0.0017,"dx":0.0017,"nx":28,"ny":28,"refTime":"2025-08-23T21:00:00:Z","depth":0,"parameterNumber":3,"parameterNumberName":"V-component_of_WINDS"},"data":[0,0,0,0,0,0,0,0,0,0,0,0,0,0,0,0,0,0,0,0,0,0,0,0,0,0,0,0,0,0,0,0,0,0,0,0,0,0,0,0,0,0,0,0,0,0,0,0,0,0,0,0,0,0,0,0,0,0,3.0858,3.0858,0,3.0869,3.0869,3.0869,3.088,3.0881,3.0881,3.0881,3.0891,3.0891,3.0891,0,0,0,0,0,0,0,0,0,0,0,0,0,3.0846,3.0846,3.0858,3.0858,3.0858,3.0869,3.0869,3.0869,3.088,3.0881,3.0881,3.0881,3.0891,3.0891,3.0891,0,0,0,0,0,0,0,0,0,0,0,0,0,3.0853,3.0846,3.0858,3.0865,3.0866,3.0869,3.0869,3.0869,3.088,3.0881,3.0881,3.0881,3.0891,3.0891,3.0891,3.0887,0,0,3.0891,3.0891,0,0,0,0,0,0,0,0,3.0853,3.0854,3.0864,3.0865,3.0866,3.0874,3.0868,3.0875,3.088,3.0875,3.0881,3.0881,3.0885,3.0885,3.0887,3.0888,3.0888,3.0891,3.0891,3.0892,3.0892,0,0,0,0,0,0,0,3.0852,3.0853,3.0862,3.0864,3.0865,3.0867,3.0869,3.087,3.0878,3.0875,3.0876,3.0877,3.0885,3.0887,3.0887,3.0888,3.0891,3.0892,3.0892,3.0892,3.0887,3.0886,0,0,0,0,0,0,3.0851,3.0853,3.0862,3.0863,3.086,3.0868,3.0869,3.0871,3.0878,3.088,3.0877,3.0878,3.0886,3.0887,3.0887,3.0884,3.0892,3.0892,3.0892,3.0887,3.0887,3.0886,0,0,0,0,0,0,3.0851,3.0852,3.0861,3.0858,3.0859,3.0867,3.0869,3.0871,3.0872,3.088,3.0881,3.0877,3.0886,3.0887,3.0887,3.0884,3.0892,3.0892,3.0887,3.0887,3.0886,3.0876,0,0,0,0,0,0,3.085,3.0851,3.085,3.0858,3.086,3.0861,3.0869,3.0871,3.0873,3.0874,3.088,3.0881,3.0887,3.0887,3.0887,3.0885,3.0892,3.0887,3.0887,3.0887,3.0877,3.0875,3.0874,0,0,0,0,0,3.085,3.0846,3.085,3.0851,3.0858,3.0861,3.0862,3.0869,3.0872,3.0871,3.0876,3.0881,3.0885,3.0887,3.0887,3.0885,3.0888,3.0887,3.0887,3.0877,3.0876,3.0874,0,0,0,0,0,0,3.0838,3.0848,3.0852,3.0851,3.0855,3.0863,3.0862,3.0867,3.087,3.087,3.0878,3.0879,3.0878,3.0882,3.0884,3.0882,3.0887,3.0886,3.088,3.0878,3.0877,3.0876,3.0892,0,0,0,0,0,3.0835,3.0837,3.0845,3.0844,3.0846,3.0853,3.0855,3.086,3.0864,3.0866,3.0871,3.0874,3.0876,3.0877,3.088,3.0877,3.0879,3.0876,3.0875,3.0873,3.0873,3.0872,3.0871,3.0885,3.0885,3.0885,0,0,3.0829,3.0835,3.0836,3.0842,3.0845,3.0847,3.0855,3.0856,3.0857,3.0866,3.0866,3.087,3.0875,3.0874,3.0873,3.0876,3.087,3.0873,3.0872,3.0872,3.0872,3.087,3.0869,3.0884,3.0884,3.0884,0,0,3.082,3.0824,3.0824,3.0828,3.0834,3.0839,3.0839,3.0846,3.0849,3.085,3.0857,3.0858,3.0861,3.0864,3.0866,3.0859,3.0863,3.0859,3.0853,3.0852,3.0851,3.085,3.0847,3.0846,3.0858,3.0858,3.0858,0,3.0812,3.0815,3.0823,3.0824,3.0826,3.0835,3.0834,3.0838,3.0844,3.0845,3.0848,3.0853,3.0856,3.0856,3.0855,3.0856,3.0856,3.0858,3.085,3.0849,3.0849,3.0846,3.0845,3.0858,3.0858,3.0858,3.0858,0,3.0805,3.0807,3.0806,3.0812,3.0814,3.0815,3.0822,3.0824,3.0828,3.0833,3.0834,3.0839,3.0842,3.0843,3.0847,3.0843,3.0845,3.0849,3.0854,3.0847,3.0845,3.0844,3.0857,3.0857,3.0857,3.0858,0,0,3.0788,3.0799,3.0799,3.0802,3.0809,3.0811,3.0811,3.0815,3.0816,3.082,3.0821,3.0824,3.0828,3.083,3.0835,3.0834,3.0828,3.0839,3.0839,3.0837,3.0824,3.0821,3.082,3.0831,3.0831,3.0831,3.0824,0,3.0779,3.0782,3.0789,3.0789,3.0791,3.0799,3.08,3.0804,3.0809,3.0811,3.0816,3.0818,3.0823,3.0824,3.0824,3.0829,3.0826,3.083,3.0832,3.0832,3.083,3.0819,3.0815,3.0809,3.0823,3.0823,3.0823,0,3.077,3.0774,3.0775,3.0783,3.0784,3.0784,3.0789,3.0791,3.0796,3.0799,3.0802,3.0808,3.0808,3.0814,3.0815,3.0817,3.0818,3.0821,3.0821,3.0821,3.0827,3.0819,3.0807,3.0805,3.0822,3.0822,3.0822,0,3.0758,3.0763,3.0765,3.0767,3.0776,3.0776,3.078,3.0786,3.0788,3.0792,3.0793,3.0797,3.0798,3.0801,3.0807,3.081,3.0808,3.0813,3.081,3.081,3.0809,3.0809,3.0797,3.081,3.081,3.081,3.081,0,3.0748,3.0748,3.0759,3.076,3.076,3.0768,3.0768,3.0772,3.0777,3.0779,3.0786,3.0787,3.0795,3.0797,3.0802,3.0802,3.0803,3.0806,3.0807,3.0805,3.0805,3.0806,3.0807,3.081,3.081,3.081,3.081,0,3.0734,3.0742,3.0743,3.0752,3.0755,3.0754,3.0762,3.0762,3.0768,3.0769,3.077,3.0778,3.0781,3.0787,3.0792,3.0795,3.0794,3.0796,3.0792,3.0793,3.079,3.079,3.0778,3.0777,3.079,3.079,3.079,0,3.0727,3.0727,3.0737,3.0739,3.0742,3.0745,3.0747,3.0756,3.0758,3.0764,3.0764,3.0767,3.0771,3.0774,3.078,3.0783,3.0786,3.0782,3.0787,3.0785,3.0786,3.0786,3.0786,3.078,3.078,3.078,3.078,0,3.0714,3.0719,3.0722,3.0727,3.073,3.0734,3.0739,3.074,3.0749,3.0751,3.0754,3.0757,3.0761,3.0764,3.0769,3.0772,3.0777,3.0778,3.0778,3.0776,3.0774,3.0775,3.0789,3.0779,3.0779,3.0779,3.0779,3.0779,3.0704,3.0705,3.0712,3.0716,3.072,3.0724,3.0726,3.0731,3.0734,3.0739,3.0744,3.0747,3.0752,3.0758,3.0761,3.0763,3.0766,3.0765,3.0765,3.0765,3.0764,3.0773,3.0764,3.0764,3.0764,3.0764,3.0764,0,3.0692,3.0697,3.07,3.0707,3.071,3.0716,3.0721,3.0723,3.0725,3.073,3.0734,3.0737,3.0741,3.0747,3.0751,3.0751,3.0754,3.0752,3.0752,3.0753,3.0761,3.0762,3.075,3.075,3.075,3.075,3.075,3.075,3.0686,3.0688,3.0693,3.0697,3.0701,3.0705,3.0707,3.0711,3.0715,3.0719,3.0723,3.0727,3.0732,3.0737,3.074,3.0741,3.0743,3.074,3.0742,3.0751,3.0752,3.0753,3.0753,3.074,3.074,3.0733,3.0733,3.0733]}]]